Location: *
(43.9905°S, 176.4941°W)
Time: 22:23:36
(UTC+00:00)

SJ-6B - Pass Details

Date: 08 December 2019
Orbit: 509 x 582 km, 97.6° (Epoch: 19 January)

Event Time Altitude Azimuth Distance (km) Brightness Sun altitude
Rises 09:00:46 0° 177° (S) 2,666 7.1 -14.2°
Reaches altitude 10° 09:03:00 10° 186° (S) 1,772 6.3 -14.5°
Maximum altitude 09:06:27 34° 251° (WSW) 889 4.4 -14.9°
Drops below altitude 10° 09:09:54 10° 316° (NW) 1,767 5.3 -15.2°
Sets 09:12:08 0° 325° (NW) 2,656 6.1 -15.4°
